Content
SEND FEEDBACK

Daily
Averages
Monthly
Summary
United States of America

NEW YORK - CENTRAL PARK, NEW YORK


Home > North America > United States > New York
Elevation: 14 feet     Latitude: 40 47N     Longitude: 073 58W

WEATHER
 
SELECT A DAY
Number of Records: 148,168;   Date Range: 11/1/95 - 8/12/14
 
SHARE

PRINT THIS DATA

[ ← Previous Day ]
WEATHER ALMANAC - OCTOBER 25, 2013
[ Next Day → ]
[ °C ]   °F
Weather ElementAverageHighLow
Temperature46.7 °F53.1 °F (2:51 pm)39.9 °F (4:51 am)
Dewpoint28 °F32 °F (11:51 pm)23 °F (4:51 pm)
Humidity49.5 %68 % (7:51 am)32 % (4:51 pm)
Barometer30.13 in30.23 in (10:51 pm)30.02 in (1:51 am)
Wind Speed5.1 mph8.1 mph (9:51 am)
Wind Gust20.7 mph (12:51 pm)
Weather ElementAverage
Visibility10 mi
Wind DirectionESE (99.6 °)

Weather ElementTotal
Precipitation---
Heating Degree Days18.5 (Base 65)
Averaged from 23 records on October 25, 2013
WEATHER CONDITIONS BREAKOUT
WIND DIRECTION BREAKOUT
WEATHER BY HOUR - OCTOBER 25, 2013
[ °C ]   °F
Local TimeTemperatureDewpointHumidityBarometerVisibilityWind DirectionWind SpeedGust SpeedPrecipitationEventsConditions
1:51 AM43.0 °F27.0 °F53 %30.02 in10.0 miVariable4.6 mphClear
2:51 AM42.1 °F27.0 °F55 %30.02 in10.0 miVariable4.6 mphClear
3:51 AM42.1 °F28.0 °F58 %30.03 in10.0 miVariable3.5 mphClear
4:51 AM39.9 °F28.9 °F65 %30.04 in10.0 miCalmClear
5:51 AM41.0 °F28.9 °F62 %30.06 in10.0 miCalmClear
6:51 AM41.0 °F28.9 °F62 %30.08 in10.0 miWNW (290°)5.8 mphClear
7:51 AM39.9 °F30.0 °F68 %30.10 in10.0 miNorthClear
8:51 AM42.1 °F30.0 °F62 %30.13 in10.0 miWest (280°)6.9 mphClear
9:51 AM45.0 °F28.9 °F53 %30.14 in10.0 miWNW (300°)8.1 mphClear
10:51 AM46.9 °F30.0 °F52 %30.13 in10.0 miWNW (290°)8.1 mphPartly Cloudy
11:51 AM48.9 °F28.9 °F46 %30.14 in10.0 miVariable4.6 mphMostly Cloudy
12:51 PM50.0 °F28.9 °F44 %30.13 in10.0 miWNW (300°)8.1 mph20.7 mphOvercast
1:51 PM52.0 °F28.0 °F40 %30.12 in10.0 miWest (280°)8.1 mph17.3 mphOvercast
2:51 PM53.1 °F27.0 °F37 %30.12 in10.0 miVariable4.6 mphOvercast
3:51 PM52.0 °F26.1 °F37 %30.12 in10.0 miVariable5.8 mphOvercast
4:51 PM52.0 °F23.0 °F32 %30.13 in10.0 miNorthMostly Cloudy
5:51 PM51.1 °F24.1 °F35 %30.14 in10.0 miVariable5.8 mph16.1 mphClear
6:51 PM51.1 °F26.1 °F38 %30.17 in10.0 miVariable3.5 mphClear
7:51 PM50.0 °F26.1 °F39 %30.19 in10.0 miVariable3.5 mphClear
8:51 PM48.9 °F27.0 °F43 %30.20 in10.0 miWest (280°)6.9 mphClear
9:51 PM48.9 °F28.9 °F46 %30.22 in10.0 miWest (270°)8.1 mphClear
10:51 PM46.9 °F30.9 °F54 %30.23 in10.0 miVariable3.5 mphClear
11:51 PM46.0 °F32.0 °F58 %30.23 in10.0 miVariable3.5 mphClear
Hourly data recorded from KNYC, located miles away from New York - Central Park, New York







STORIES FROM OUR PARTNERS